Weather History for Somerset, KY

Change the Weather History Date:

Sunday, December 9, 2012

  Actual Average Record
Temperature  
Mean Temperature 58 °F -  
Max Temperature 62 °F 48 °F 69 °F (2007)
Min Temperature 55 °F 31 °F 10 °F (2006)
Degree Days  
Heating Degree Days 6    
Growing Degree Days 8 (Base 50)    
Moisture  
Dew Point 56 °F    
Average Humidity 93    
Maximum Humidity 100    
Minimum Humidity 72    
Precipitation  
Precipitation 0.00 in - - ()
Sea Level Pressure  
Sea Level Pressure 29.94 in    
Wind  
Wind Speed 3 mph (South)    
Max Wind Speed 13 mph    
Max Gust Speed 20 mph    
Visibility 7 miles    
Events Rain , Thunderstorm    
Averages and records for this station are not official NWS values.
T = Trace of Precipitation, MM = Missing Value Source: NWS Daily Summary

Daily Weather History Graph

Daily Weather History Graph

Search for Another Location

Airport:

Trip Planner

Search our weather history database for the weather conditions in past years. The results will help you decide how hot, cold, wet, or windy it might be!

Date:

Astronomy

Dec. 09, 2012 Rise Set
Actual Time 7:40 AM EST 5:21 PM EST
Civil Twilight 7:11 AM EST 5:50 PM EST
Nautical Twilight 6:39 AM EST 6:22 PM EST
Astronomical Twilight 6:07 AM EST 6:54 PM EST
Moon 3:16 AM EST (12/9) 2:24 PM EST (12/9)
Length of Visible Light 10h 38m
Length of Day
9h 40m
Waning Crescent, 19% of the Moon is Illuminated
Dec 9
Waning Crescent
Dec 13
New
Dec 20
First Quarter
Dec 28
Full
Jan 4
Last Quarter

Hourly Weather History & Observations

Time (EST) Temp. Dew Point Humidity Pressure Visibility Wind Dir Wind Speed Gust Speed Precip Events Conditions
12:15 AM 55.4 °F 55.4 °F 100% 30.01 in 3.0 mi Calm Calm - N/A Rain Heavy Rain
12:35 AM 55.4 °F 55.4 °F 100% 30.01 in 2.5 mi Calm Calm - N/A Rain Rain
12:55 AM 55.4 °F 55.4 °F 100% 29.99 in 1.0 mi Calm Calm - N/A Rain Heavy Rain
1:15 AM 55.4 °F 55.4 °F 100% 30.00 in 0.5 mi Calm Calm - N/A   Light Drizzle
1:35 AM 55.4 °F 55.4 °F 100% 30.00 in 1.2 mi Calm Calm - N/A   Overcast
1:55 AM 55.4 °F 55.4 °F 100% 30.00 in 4.0 mi Calm Calm - N/A   Overcast
2:15 AM 55.4 °F 55.4 °F 100% 30.00 in 5.0 mi Calm Calm - N/A Rain Light Rain
2:35 AM 55.4 °F 55.4 °F 100% 30.00 in 4.0 mi Calm Calm - N/A   Overcast
2:55 AM 55.4 °F 55.4 °F 100% 30.00 in 5.0 mi Calm Calm - N/A   Overcast
3:15 AM 55.4 °F 55.4 °F 100% 29.99 in 7.0 mi SSE 3.5 mph - N/A   Overcast
3:35 AM 55.4 °F 55.4 °F 100% 29.99 in 5.0 mi South 3.5 mph - N/A   Mostly Cloudy
3:55 AM 55.4 °F 55.4 °F 100% 29.99 in 5.0 mi Calm Calm - N/A   Overcast
4:15 AM 55.4 °F 53.6 °F 94% 29.99 in 4.0 mi Calm Calm - N/A   Overcast
4:35 AM 55.4 °F 55.4 °F 100% 29.99 in 5.0 mi Calm Calm - N/A Rain Light Rain
4:55 AM 55.4 °F 53.6 °F 94% 29.98 in 4.0 mi Calm Calm - N/A   Overcast
5:15 AM 55.4 °F 55.4 °F 100% 29.98 in 5.0 mi SSE 3.5 mph - N/A Rain Rain
5:35 AM 55.4 °F 55.4 °F 100% 29.98 in 7.0 mi South 3.5 mph - N/A   Overcast
5:55 AM 55.4 °F 55.4 °F 100% 29.99 in 7.0 mi Calm Calm - N/A   Overcast
6:15 AM 55.4 °F 55.4 °F 100% 29.99 in 7.0 mi Calm Calm - N/A   Overcast
6:35 AM 55.4 °F 55.4 °F 100% 30.00 in 10.0 mi Calm Calm - N/A   Mostly Cloudy
6:55 AM 55.4 °F 55.4 °F 100% 29.99 in 7.0 mi SSE 3.5 mph - N/A   Scattered Clouds
7:15 AM 55.4 °F 55.4 °F 100% 29.99 in 5.0 mi SSE 4.6 mph - N/A   Scattered Clouds
7:35 AM 55.4 °F 55.4 °F 100% 29.99 in 7.0 mi South 3.5 mph - N/A   Mostly Cloudy
7:55 AM 55.4 °F 55.4 °F 100% 29.99 in 5.0 mi Calm Calm - N/A Thunderstorm Mostly Cloudy
8:15 AM 57.2 °F 55.4 °F 94% 29.98 in 7.0 mi South 3.5 mph - N/A   Scattered Clouds
8:35 AM 57.2 °F 55.4 °F 94% 29.98 in 7.0 mi SSE 4.6 mph - N/A   Scattered Clouds
8:55 AM 57.2 °F 55.4 °F 94% 29.99 in 7.0 mi South 3.5 mph - N/A Rain , Thunderstorm Light Thunderstorms and Rain
9:15 AM 57.2 °F 55.4 °F 94% 29.98 in 4.0 mi South 6.9 mph - N/A Rain , Thunderstorm Rain
9:35 AM 59.0 °F 55.4 °F 88% 29.98 in 5.0 mi South 3.5 mph - N/A Rain Light Rain
9:55 AM 59.0 °F 55.4 °F 88% 29.98 in 7.0 mi South 5.8 mph - N/A Thunderstorm Thunderstorm
10:15 AM 59.0 °F 55.4 °F 88% 30.00 in 5.0 mi SW 3.5 mph - N/A Rain Rain
10:35 AM 57.2 °F 55.4 °F 94% 30.02 in 2.0 mi NW 3.5 mph - N/A Rain , Thunderstorm Heavy Thunderstorms and Rain
10:55 AM 57.2 °F 55.4 °F 94% 30.02 in 2.0 mi Calm Calm - N/A Rain , Thunderstorm Heavy Thunderstorms and Rain
11:15 AM 57.2 °F 57.2 °F 100% 30.01 in 1.0 mi Calm Calm - N/A Rain , Thunderstorm Heavy Thunderstorms and Rain
11:35 AM 57.2 °F 55.4 °F 94% 29.98 in 1.0 mi NE 4.6 mph - N/A Rain , Thunderstorm Heavy Thunderstorms and Rain
11:55 AM 57.2 °F 57.2 °F 100% 29.99 in 1.2 mi North 9.2 mph - N/A Rain , Thunderstorm Heavy Thunderstorms and Rain
12:15 PM 57.2 °F 57.2 °F 100% 29.97 in 1.2 mi Calm Calm - N/A Rain , Thunderstorm Thunderstorms and Rain
12:35 PM 57.2 °F 57.2 °F 100% 29.96 in 3.0 mi SE 4.6 mph - N/A Rain Rain
1:15 PM 59.0 °F 57.2 °F 94% 29.96 in 3.0 mi WSW 5.8 mph - N/A Rain Light Rain
1:35 PM 57.2 °F 57.2 °F 100% 29.95 in 5.0 mi Calm Calm - N/A Rain Light Rain
2:15 PM 57.2 °F 57.2 °F 100% 29.94 in 2.5 mi Calm Calm - N/A Rain Light Rain
2:35 PM 57.2 °F 57.2 °F 100% 29.92 in 7.0 mi SE 9.2 mph - N/A   Light Drizzle
2:55 PM 59.0 °F 57.2 °F 94% 29.93 in 10.0 mi South 4.6 mph - N/A   Overcast
3:15 PM 59.0 °F 59.0 °F 100% 29.92 in 10.0 mi SSE 4.6 mph - N/A   Overcast
3:35 PM 59.0 °F 59.0 °F 100% 29.92 in 10.0 mi South 4.6 mph - N/A   Overcast
3:55 PM 59.0 °F 59.0 °F 100% 29.92 in 10.0 mi South 4.6 mph - N/A   Overcast
4:15 PM 59.0 °F 59.0 °F 100% 29.92 in 10.0 mi South 4.6 mph - N/A   Overcast
4:35 PM 60.8 °F 59.0 °F 94% 29.91 in 10.0 mi South 5.8 mph - N/A   Overcast
4:55 PM 60.8 °F 59.0 °F 94% 29.91 in 10.0 mi South 5.8 mph - N/A   Overcast
5:15 PM 60.8 °F 59.0 °F 94% 29.91 in 10.0 mi South 3.5 mph - N/A   Overcast
5:35 PM 60.8 °F 59.0 °F 94% 29.91 in 10.0 mi South 4.6 mph - N/A   Overcast
5:55 PM 60.8 °F 59.0 °F 94% 29.91 in 10.0 mi South 6.9 mph - N/A   Overcast
6:15 PM 60.8 °F 57.2 °F 88% 29.90 in 10.0 mi South 5.8 mph - N/A   Mostly Cloudy
6:35 PM 60.8 °F 57.2 °F 88% 29.90 in 10.0 mi South 5.8 mph - N/A   Mostly Cloudy
6:55 PM 60.8 °F 57.2 °F 88% 29.89 in 10.0 mi South 3.5 mph - N/A   Scattered Clouds
7:15 PM 60.8 °F 55.4 °F 82% 29.88 in 10.0 mi South 5.8 mph - N/A   Scattered Clouds
7:35 PM 60.8 °F 55.4 °F 82% 29.87 in 10.0 mi South 6.9 mph - N/A   Clear
7:55 PM 60.8 °F 55.4 °F 82% 29.87 in 10.0 mi South 8.1 mph - N/A   Clear
8:15 PM 60.8 °F 55.4 °F 82% 29.87 in 10.0 mi South 6.9 mph - N/A   Clear
8:35 PM 60.8 °F 55.4 °F 82% 29.85 in 10.0 mi South 11.5 mph - N/A   Clear
8:55 PM 60.8 °F 55.4 °F 82% 29.85 in 10.0 mi South 12.7 mph 17.3 mph N/A   Clear
9:15 PM 62.6 °F 55.4 °F 77% 29.84 in 10.0 mi SSW 11.5 mph 19.6 mph N/A   Clear
9:35 PM 62.6 °F 55.4 °F 77% 29.84 in 10.0 mi South 11.5 mph 18.4 mph N/A   Clear
9:55 PM 60.8 °F 55.4 °F 82% 29.84 in 10.0 mi SSW 9.2 mph - N/A   Clear
10:15 PM 60.8 °F 55.4 °F 82% 29.85 in 10.0 mi SSW 8.1 mph - N/A   Clear
10:35 PM 60.8 °F 55.4 °F 82% 29.83 in 10.0 mi South 11.5 mph 17.3 mph N/A   Clear
10:55 PM 62.6 °F 55.4 °F 77% 29.83 in 10.0 mi SSW 12.7 mph 17.3 mph N/A   Clear
11:15 PM 60.8 °F 53.6 °F 77% 29.83 in 10.0 mi SSW 11.5 mph 19.6 mph N/A   Scattered Clouds
11:35 PM 62.6 °F 53.6 °F 72% 29.82 in 10.0 mi South 11.5 mph 19.6 mph N/A   Scattered Clouds
11:55 PM 62.6 °F 53.6 °F 72% 29.81 in 10.0 mi SSW 9.2 mph 19.6 mph N/A   Overcast